Regional Weather Roundup
Issued by NWS

Home | Current Version | Previous Version | Text Only | Print | Product List | Glossary Off
Versions: 1 2 3 4 5 6 7 8 9 10 11 12 13 14 15 16 17 18 19 20 21 22 23 24 25 26 27 28 29 30 31 32 33 34 35 36 37 38 39 40 41 42 43 44 45 46 47 48 49 50

000
ASUS43 KFSD 241602
RWRSD

WEATHER ROUNDUP FOR SOUTH DAKOTA
NATIONAL WEATHER SERVICE SIOUX FALLS SD
1100 AM CDT WED MAY 24 2017

NOTE: "FAIR" INDICATES FEW OR NO CLOUDS BELOW 12,000 FEET WITH NO
SIGNIFICANT WEATHER AND/OR OBSTRUCTIONS TO VISIBILITY.


SDZ001>005-009-010-012>017-241700-
NORTHWEST AND NORTH CENTRAL SOUTH DAKOTA

CITY           SKY/WX    TMP DP  RH WIND       PRES   REMARKS
BUFFALO          N/A     62  38  40 S33G40    29.50F
FAITH            N/A     58  39  49 S22       29.66F
MOBRIDGE       FAIR      58  40  51 SE16      29.69F
$$

SDZ012>016-024>037-041>051-057-063-072>074-241700-
SOUTHWEST AND SOUTH CENTRAL SOUTH DAKOTA

CITY           SKY/WX    TMP DP  RH WIND       PRES   REMARKS
RAPID CTY ARPT FAIR      60  40  47 S23       29.65F
PIERRE         FAIR      57  41  55 SE10      29.72F
CUSTER         FAIR      56  33  42 S6        29.70F
ELLSWORTH AFB  FAIR      59  38  46 S22G33    29.62F
PHILIP         FAIR      60  38  43 S15       29.71F
PINE RIDGE     FAIR      61  41  47 S15       29.70F
SPEARFISH      FAIR      61  46  59 NE7       29.61F
WINNER         FAIR      57  43  59 MISG      29.77F
$$

SDZ004>011-016>023-039-040-241700-
NORTHEAST SOUTH DAKOTA

CITY           SKY/WX    TMP DP  RH WIND       PRES   REMARKS
ABERDEEN       CLOUDY    57  40  52 SE9       29.77F
WATERTOWN      CLOUDY    54  45  71 SE3       29.76F
BROOKINGS      CLOUDY    54  45  71 E5        29.78F
SISSETON         N/A     56  49  77 SE7       29.77F
$$

SDZ017-020-022-023-036>040-048>070-241700-
SOUTHEAST SOUTH DAKOTA

CITY           SKY/WX    TMP DP  RH WIND       PRES   REMARKS
SIOUX FALLS    PTSUNNY   56  48  74 NE5       29.78F
HURON          PTSUNNY   55  44  66 SE6       29.77F
MITCHELL       PTSUNNY   56  45  66 CALM      29.79F
YANKTON        FAIR      56  47  71 N5        29.78F
$$

ABBREVIATIONS USED IN REMARKS
   TC - TEMPERATURE IN CELSIUS
  WCI - WIND CHILL INDEX
   HX - HEAT INDEX
  VSB - VISIBILITY





USA.gov is the U.S. government's official web portal to all federal, state and local government web resources and services.